map of NBE home
NBE - Airport
Location
City:  Enfidha, Tunisia
Name:Enfidha-Hammamet International Airport
Old (Alt.):Zine El Abidine Ben Ali International Airport
ICAO:DTNH
IATA:NBE

Details
Type:Airport (Aerodrome, Airfield)
Use:Public/Civil, International (customs port of entry)
Latitude:3604'33"N (36.075833)
Longitude:1026'19"E (10.438611)
Elevation:21 ft (6 m)
Variation:2.42E (WMM2015 magnetic declination)
0.10 annual change
Runways:1
Longest:10827 × 197 ft (3300 × 60 m), paved

Time
Time Zone:UTC+1
Local Time:

Weather
METAR:DTNH 231600Z 32019KT 9999 SCT030 12/05 Q1003
TAF:DTNH 231140Z 2312/2412 30020KT 9999 SCT023
BECMG 2315/2317 29010KT
BECMG 2320/2322 22006KT 9999 SCT026
BECMG 2409/2411 16008KT

Related Locations
Nearby:
Farthest:CHT: 11787 mi / 18969 km
Waitangi [Tuuta], CIT, NZ

Find:

   beyond  
but within

Other Information
Maps:
NOTAMs:
Links:
Sources:

  
flag of Tunisia   

Airport Diagram

Airport diagram for NBE

Airport diagram PDF

Sectional Chart

Flight Planning
at skyvector.com

Satellite Image

Google Maps Satellite view

 

Copyright © 2004-2018 Karl L. Swartz. All rights reserved.
The Great Circle Mapper name and logo are trademarks of the Great Circle Mapper.
All other trademarks mentioned herein belong to their respective owners.
Please see credits for attibutions and further copyright information.

  Follow gcmap on Facebook Follow gcmap on Twitter Follow gcmap on Google+ GCmap on LinkedIn

hCard Microformat

Geo Microformat